Weather observations for the past three days for
Zapata, TX
Imperial (Metric)
Date Time (cdt) Wind (mph) Vis. (mi.) Weather Sky Cond. Temperature (ºF) Relative Humidity Wind Chill (°F) Heat Index (°F) Pressure Precipitation (in)
Air Dwpt 6 hour altimeter (in) sea level (mb) 1 hr 3 hr 6 hr
Max. Min.
15 22:35 SE 16 G 20 10.00 Fair CLR 88.3 68.9 53% 93 29.83 0.0
15 22:15 SE 14 G 23 10.00 Fair CLR 89.1 68.4 51% 93 29.82 0.0
15 21:55 E 14 G 20 10.00 Fair CLR 89.8 68 49% 94 29.81 0.0
15 21:35 E 15 G 24 10.00 Fair CLR 90.7 68 47% 95 29.8 0.0
15 21:15 SE 15 G 24 10.00 Fair CLR 91.6 67.3 45% 95 29.8 0.0
15 20:55 SE 13 G 21 10.00 Fair CLR 92.7 66.7 43% 96 29.79 0.0
15 20:35 E 17 G 24 10.00 Fair CLR 93.6 66.6 41% 97 29.78 0.0
15 20:15 E 17 G 24 10.00 Partly Cloudy SCT080 94.5 66.4 40% 98 29.77 0.0
15 19:55 SE 17 G 25 10.00 Partly Cloudy SCT090 SCT110 95.7 66.4 38% 99 29.76 0.0
15 19:35 SE 14 G 23 10.00 Mostly Cloudy BKN090 BKN110 97 65.5 36% 100 29.76 0.0
15 19:15 E 20 G 26 10.00 Partly Cloudy SCT090 98.2 65.3 34% 102 29.75 0.0
15 18:55 E 9 10.00 Partly Cloudy SCT090 100.9 60.4 103.8 95.2 26% 102 29.74 0.0
15 18:35 SE 9 7.00 Partly Cloudy SCT080 102 61.5 26% 104 29.74 0.0
15 18:15 SE 3 10.00 Partly Cloudy SCT080 100.6 61.7 28% 102 29.75 0.0
15 17:55 SE 7 G 16 10.00 Partly Cloudy SCT080 101.7 61 26% 103 29.75 0.0
15 17:35 SE 9 10.00 Fair CLR 101.3 61.7 27% 103 29.75 0.0
15 17:15 SE 6 G 16 10.00 Partly Cloudy SCT080 102.4 60.4 25% 103 29.76 0.0
15 16:55 SE 13 G 17 10.00 Partly Cloudy SCT080 102.9 61.3 26% 105 29.77 0.0
15 16:35 SE 10 10.00 Partly Cloudy SCT085 102.6 62.2 27% 105 29.78 0.0
15 16:15 E 3 10.00 Partly Cloudy SCT075 SCT095 99.7 61.7 29% 101 29.78 0.0
15 15:55 SE 12 10.00 Mostly Cloudy BKN075 BKN085 101.8 63.3 28% 104 29.8 0.0
15 15:35 SE 9 G 16 10.00 Mostly Cloudy SCT075 BKN085 101.1 63.5 29% 104 29.81 0.0
15 15:15 S 10 10.00 Partly Cloudy SCT065 SCT085 100.2 63.7 30% 103 29.82 0.0
15 14:55 SE 8 10.00 Mostly Cloudy BKN065 BKN085 99.9 63.7 31% 102 29.82 0.0
15 14:35 SE 5 10.00 Partly Cloudy SCT065 99.3 64 31% 102 29.83 0.0
15 14:15 E 13 G 17 10.00 Partly Cloudy SCT065 SCT075 98.2 63.7 32% 100 29.84 0.0
15 13:55 S 6 10.00 Partly Cloudy SCT060 SCT075 99.5 64.4 32% 102 29.85 0.0
15 13:35 SE 6 10.00 Partly Cloudy SCT060 98.4 65.8 34% 102 29.86 0.0
15 13:15 SE 8 G 16 10.00 Partly Cloudy SCT050 SCT065 98.1 65.5 34% 101 29.87 0.0
15 12:55 SE 5 10.00 Partly Cloudy SCT050 96.6 66.6 97.5 78.3 37% 101 29.88 0.0
15 12:35 SE 9 G 16 10.00 Partly Cloudy SCT050 95.5 67.1 39% 100 29.89 0.0
15 12:15 SE 5 10.00 Mostly Cloudy SCT048 BKN050 93.6 68.2 44% 98 29.89 0.0
15 11:55 SE 9 10.00 Partly Cloudy SCT046 94.5 68 42% 99 29.9 0.0
15 11:35 SE 10 10.00 Partly Cloudy SCT044 93.9 68.2 43% 99 29.9 0.0
15 11:15 S 7 10.00 Fair CLR 93 68 44% 97 29.9 0.0
15 10:55 SE 7 10.00 Partly Cloudy SCT037 91.8 69.4 48% 97 29.9 0.0
15 10:35 SE 8 10.00 Partly Cloudy SCT035 90.5 70.9 53% 97 29.91 0.0
15 10:15 SE 9 G 18 10.00 Fair CLR 89.4 70.9 54% 96 29.91 0.0
15 09:55 SE 8 10.00 Fair CLR 88.2 71.1 57% 94 29.91 0.0
15 09:35 SE 8 10.00 Fair CLR 86.9 71.2 60% 93 29.91 0.0
15 09:15 SE 6 10.00 Fair CLR 86.5 72 62% 93 29.92 0.0
15 08:55 S 9 10.00 Fair CLR 85.6 72 64% 92 29.92 0.0
15 08:35 SE 8 10.00 Fair CLR 84.6 73.4 69% 91 29.91 0.0
15 08:15 SE 7 10.00 Fair CLR 82.9 73.4 73% 89 29.91 0.0
15 07:55 SE 5 10.00 Fair CLR 81.5 72.7 75% 86 29.9 0.0
15 07:35 SE 3 10.00 Fair CLR 80.1 72 76% 84 29.9 0.0
15 07:15 Calm 10.00 Fair CLR 78.8 71.8 79% 82 29.89 0.0
15 06:55 Calm 10.00 Fair CLR 78.3 71.6 84.7 78.3 80% 81 29.89 0.0
15 06:35 SE 3 10.00 Fair CLR 78.4 71.4 79% 81 29.89 0.0
15 06:15 SE 3 10.00 Fair CLR 78.8 71.1 77% 82 29.89 0.0
15 05:55 SE 3 10.00 Fair CLR 79.2 70.9 76% 82 29.89 0.0
15 05:35 SE 5 10.00 Fair CLR 79.7 70.9 75% 83 29.89 0.0
15 05:15 SE 3 10.00 Fair CLR 80.1 70.7 73% 83 29.89 0.0
15 04:55 SE 5 10.00 Fair CLR 80.6 70.7 72% 84 29.89 0.0
15 04:35 SE 6 10.00 Partly Cloudy SCT020 80.8 70.7 72% 84 29.89 0.0
15 04:15 SE 5 10.00 Partly Cloudy SCT020 81.3 70 69% 85 29.89 0.0
15 03:55 SE 5 10.00 Partly Cloudy SCT080 81.5 70.2 69% 85 29.9 0.0
15 03:35 SE 5 10.00 Overcast OVC080 81.9 70.3 68% 86 29.9 0.0
15 03:15 SE 3 10.00 Mostly Cloudy BKN080 82 70.9 69% 86 29.9 0.0
15 02:55 SE 6 10.00 Partly Cloudy SCT080 82.4 70.7 68% 87 29.91 0.0
15 02:35 SE 7 10.00 Partly Cloudy SCT080 82.8 70.5 67% 87 29.92 0.0
15 02:15 SE 8 10.00 Fair CLR 83.3 70.3 65% 88 29.92 0.0
15 01:55 SE 7 10.00 Fair CLR 83.7 69.8 63% 88 29.92 0.0
15 01:35 SE 6 10.00 Fair CLR 84 70.2 63% 88 29.92 0.0
15 01:15 SE 9 10.00 Fair CLR 84.4 70.2 62% 89 29.92 0.0
15 00:55 SE 8 10.00 Fair CLR 84.7 70 99.1 84.7 61% 89 29.92 0.0
15 00:35 SE 8 10.00 Fair CLR 85.3 69.8 60% 90 29.92 0.0
15 00:15 SE 9 G 17 10.00 Fair CLR 86 69.8 59% 91 29.92 0.0
14 23:55 SE 10 G 18 10.00 Fair CLR 86.4 69.8 58% 91 29.91 0.0
14 23:35 SE 12 G 17 10.00 Fair CLR 86.9 70.3 58% 92 29.9 0.0
14 23:15 E 9 10.00 Fair CLR 87.6 70.2 56% 93 29.9 0.0
14 22:55 SE 13 G 23 10.00 Fair CLR 88.2 69.8 55% 93 29.89 0.0
14 22:35 SE 12 G 21 10.00 Fair CLR 88.9 69.1 52% 93 29.88 0.0
14 22:15 E 14 G 21 10.00 Fair CLR 89.6 68.2 49% 94 29.87 0.0
14 21:55 E 12 G 20 10.00 Fair CLR 90.5 67.1 46% 94 29.86 0.0
14 21:35 E 15 G 23 10.00 Fair CLR 90.9 66.7 45% 94 29.86 0.0
14 21:15 E 16 G 20 10.00 Fair CLR 91.8 66.7 44% 95 29.85 0.0
14 20:55 E 15 G 23 10.00 Partly Cloudy SCT090 92.8 66.4 42% 96 29.84 0.0
14 20:35 E 13 G 22 10.00 Partly Cloudy SCT090 94.3 66.2 40% 98 29.83 0.0
14 20:15 E 10 G 20 10.00 Mostly Cloudy BKN080 96.1 65.3 36% 99 29.82 0.0
14 19:55 E 14 G 21 10.00 Mostly Cloudy BKN080 97.5 65.3 35% 101 29.82 0.0
14 19:35 SE 15 G 20 10.00 Partly Cloudy SCT120 97.2 65.5 35% 100 29.8 0.0
14 19:15 E 15 G 21 10.00 Mostly Cloudy SCT080 SCT100 BKN120 97.9 65.3 34% 101 29.8 0.0
14 18:55 SE 16 G 24 10.00 Partly Cloudy SCT090 SCT110 100.2 65.5 104.2 96.4 32% 104 29.8 0.0
14 18:35 E 10 10.00 Partly Cloudy SCT090 102.4 61.9 27% 104 29.79 0.0
14 18:15 NE 6 10.00 Partly Cloudy SCT085 100.8 60.8 27% 102 29.79 0.0
14 17:55 E 12 G 16 10.00 Partly Cloudy SCT085 103.6 61.3 25% 105 29.79 0.0
14 17:35 SE 9 10.00 Fair CLR 103.6 61.2 25% 105 29.8 0.0
14 17:15 E 6 10.00 Fair CLR 103.5 61.3 25% 105 29.81 0.0
14 16:55 SE 9 10.00 Partly Cloudy SCT080 SCT110 102.9 62.1 26% 105 29.81 0.0
14 16:35 SE 9 10.00 Partly Cloudy SCT080 103.6 62.4 26% 106 29.82 0.0
14 16:15 E 13 G 16 10.00 Partly Cloudy SCT080 103.1 62.8 27% 106 29.82 0.0
14 15:55 NE 7 10.00 Fair CLR 103.5 63.1 27% 106 29.83 0.0
14 15:35 NE 7 10.00 Partly Cloudy SCT070 102.7 63.3 28% 106 29.83 0.0
14 15:15 E 5 10.00 Partly Cloudy SCT070 100.9 63.3 29% 103 29.84 0.0
14 14:55 E 3 10.00 Partly Cloudy SCT070 102 63.7 29% 105 29.85 0.0
14 14:35 SE 8 10.00 Partly Cloudy SCT070 98.8 63.7 32% 101 29.87 0.0
14 14:15 SE 8 10.00 Partly Cloudy SCT070 100.6 63.9 30% 103 29.87 0.0
14 13:55 NE 8 10.00 Partly Cloudy SCT070 99.7 64.2 31% 103 29.87 0.0
14 13:35 Calm 10.00 Fair CLR 99 63.7 31% 101 29.88 0.0
14 13:15 E 10 10.00 Partly Cloudy SCT065 99.5 64.4 32% 102 29.89 0.0
14 12:55 SE 5 10.00 Fair CLR 97.9 64.4 98.4 79.7 33% 101 29.9 0.0
14 12:35 SE 6 10.00 Fair CLR 96.1 64.9 36% 99 29.9 0.0
14 12:15 Calm 10.00 Fair CLR 95.9 65.7 37% 99 29.91 0.0
14 11:55 E 9 10.00 Fair CLR 95.5 66.9 39% 100 29.92 0.0
14 11:35 SE 3 10.00 Fair CLR 94.3 68.2 43% 99 29.92 0.0
14 11:15 E 3 10.00 Fair CLR 93.2 68.4 44% 98 29.92 0.0
14 10:55 E 6 10.00 Fair CLR 92.3 69.8 48% 98 29.93 0.0
14 10:35 E 10 10.00 Fair CLR 91 70.9 52% 97 29.93 0.0
14 10:15 SE 5 10.00 Fair CLR 89.8 70.3 53% 95 29.94 0.0
14 09:55 S 7 10.00 Fair CLR 88.5 70.9 56% 94 29.95 0.0
14 09:35 SE 9 10.00 Fair CLR 87.6 72.3 61% 95 29.94 0.0
14 09:15 SE 9 10.00 Fair CLR 86.7 72.7 63% 94 29.94 0.0
14 08:55 SE 7 10.00 Fair CLR 86 72.9 65% 93 29.94 0.0
14 08:35 SE 7 10.00 Fair CLR 84.7 73.6 69% 92 29.93 0.0
14 08:15 SE 8 10.00 Fair CLR 83.7 73.6 72% 90 29.93 0.0
14 07:55 E 6 10.00 Fair CLR 82.4 73.4 74% 88 29.92 0.0
14 07:35 E 6 10.00 Fair CLR 80.8 72.9 77% 85 29.92 0.0
14 07:15 E 6 10.00 Fair CLR 79.9 72.9 79% 84 29.91 0.0
14 06:55 E 5 10.00 Fair CLR 79.3 72.7 85.3 79.3 80% 83 29.91 0.0
14 06:35 E 5 10.00 Fair CLR 79.5 72.5 79% 83 29.91 0.0
14 06:15 E 3 10.00 Fair CLR 79.7 72.5 79% 83 29.9 0.0
14 05:55 Calm 10.00 Fair CLR 79.9 72.5 78% 84 29.9 0.0
14 05:35 SE 5 10.00 Fair CLR 80.1 72.5 78% 84 29.89 0.0
14 05:15 SE 3 10.00 Fair CLR 80.6 72.1 76% 85 29.89 0.0
14 04:55 SE 3 10.00 Fair CLR 81 72.1 75% 85 29.89 0.0
14 04:35 SE 3 10.00 Fair CLR 81.5 72 73% 86 29.89 0.0
14 04:15 SE 5 10.00 Fair CLR 81.7 71.6 72% 86 29.9 0.0
14 03:55 SE 3 10.00 Fair CLR 82 71.8 71% 87 29.9 0.0
14 03:35 S 6 10.00 Fair CLR 82.4 71.8 70% 87 29.9 0.0
14 03:15 S 3 10.00 Fair CLR 82.4 71.1 69% 87 29.9 0.0
14 02:55 SE 5 10.00 Fair CLR 83.3 71.2 67% 88 29.9 0.0
14 02:35 SE 6 10.00 Fair CLR 83.5 71.1 66% 88 29.9 0.0
14 02:15 SE 6 10.00 Fair CLR 83.7 71.1 66% 89 29.9 0.0
14 01:55 SE 7 10.00 Fair CLR 84.2 70.9 64% 89 29.91 0.0
14 01:35 SE 5 10.00 Fair CLR 84.6 70.3 62% 89 29.91 0.0
14 01:15 SE 9 10.00 Fair CLR 85.1 70.2 61% 90 29.91 0.0
14 00:55 SE 9 10.00 Fair CLR 85.3 70.7 100.4 85.3 62% 90 29.91 0.0
14 00:35 SE 8 G 16 10.00 Fair CLR 86 70.5 60% 91 29.91 0.0
14 00:15 SE 10 G 16 10.00 Fair CLR 86.2 70.2 59% 91 29.9 0.0
13 23:55 SE 10 G 16 10.00 Fair CLR 86.9 69.8 57% 92 29.9 0.0
13 23:35 SE 12 10.00 Fair CLR 87.4 69.3 55% 92 29.9 0.0
13 23:15 SE 9 10.00 Fair CLR 88.2 69.3 54% 93 29.9 0.0
13 22:55 SE 13 G 20 10.00 Fair CLR 88.9 68.9 52% 93 29.89 0.0
13 22:35 SE 15 G 24 10.00 Fair CLR 89.8 68.2 49% 94 29.88 0.0
13 21:55 E 13 G 24 10.00 Fair CLR 91.4 67.3 45% 95 29.86 0.0
13 21:35 E 17 10.00 Fair CLR 93 66.7 42% 96 29.85 0.0
13 21:15 E 13 G 23 10.00 Partly Cloudy SCT080 94.5 66.2 40% 98 29.84 0.0
13 20:55 E 9 G 18 10.00 Mostly Cloudy SCT080 BKN120 95.9 66.2 38% 99 29.83 0.0
13 20:35 SE 10 10.00 Mostly Cloudy SCT090 BKN110 97 65.3 35% 100 29.82 0.0
13 20:15 E 10 G 16 10.00 Overcast OVC080 99.1 63.9 31% 102 29.82 0.0
13 19:55 E 5 10.00 Overcast OVC080 99.7 62.8 30% 102 29.82 0.0
13 19:35 E 9 G 20 10.00 Mostly Cloudy BKN080 99.3 64.4 32% 102 29.82 0.0
13 19:15 SW 5 10.00 Fair CLR 99.7 65.1 32% 103 29.8 0.0
13 18:55 Calm 10.00 Fair CLR 100.4 64.2 104.4 98.6 31% 103 29.81 0.0
13 18:35 Calm 10.00 Fair CLR 100.2 64.8 31% 104 29.81 0.0
13 18:15 Calm 10.00 Fair CLR 100.4 64.2 31% 103 29.81 0.0
13 17:55 S 6 10.00 Partly Cloudy SCT110 99.5 65.8 33% 103 29.82 0.0
13 17:35 SE 7 10.00 Partly Cloudy SCT080 SCT090 SCT110 99.1 64.9 33% 102 29.82 0.0
13 17:15 NE 8 10.00 Mostly Cloudy BKN080 99.7 65.7 33% 104 29.82 0.0
13 16:55 E 7 10.00 Partly Cloudy SCT080 104.4 64.6 27% 108 29.82 0.0
13 16:35 E 5 10.00 Fair CLR 104 64.4 28% 108 29.82 0.0
13 16:15 SE 8 10.00 Partly Cloudy SCT080 SCT095 102.9 64.4 29% 107 29.83 0.0
13 15:55 S 5 10.00 Partly Cloudy SCT080 103.6 64.6 28% 107 29.83 0.0
13 15:35 SE 6 10.00 Partly Cloudy SCT080 102.6 65.1 30% 107 29.85 0.0
13 15:15 E 9 10.00 Partly Cloudy SCT075 103.8 64.9 28% 108 29.85 0.0
13 14:55 E 7 10.00 Partly Cloudy SCT075 102.2 65.1 30% 106 29.86 0.0
13 14:35 Calm 10.00 Fair CLR 101.7 64.8 30% 105 29.86 0.0
13 14:15 SE 9 10.00 Partly Cloudy SCT065 101.1 65.8 32% 105 29.87 0.0
13 13:55 S 6 10.00 Partly Cloudy SCT065 100 65.5 32% 104 29.88 0.0
13 13:35 SE 3 10.00 Fair CLR 100.2 65.8 33% 104 29.89 0.0
13 13:15 Calm 10.00 Fair CLR 99.7 65.8 33% 104 29.9 0.0
13 12:55 SE 5 10.00 Fair CLR 98.6 65.8 98.6 80.4 34% 102 29.9 0.0
13 12:35 SE 8 10.00 Fair CLR 97.5 65.7 35% 101 29.91 0.0
13 12:15 E 5 10.00 Fair CLR 97 66.2 37% 101 29.91 0.0
13 11:55 SE 3 10.00 Fair CLR 94.8 69.4 44% 101 29.92 0.0
13 11:35 SE 8 10.00 Fair CLR 94.5 69.1 44% 100 29.92 0.0
13 11:15 S 5 10.00 Fair CLR 93 70.7 48% 100 29.92 0.0
13 10:55 SE 5 10.00 Fair CLR 91.6 71.2 51% 98 29.92 0.0
13 10:35 SE 6 10.00 Fair CLR 91.4 71.6 52% 99 29.93 0.0
13 10:15 S 8 10.00 Fair CLR 90.1 72.1 56% 98 29.93 0.0
13 09:55 SE 5 10.00 Fair CLR 89.2 73 59% 97 29.93 0.0
13 09:35 S 5 10.00 Fair CLR 88.3 73.4 61% 97 29.93 0.0
13 09:15 SE 7 10.00 Fair CLR 87.3 73.6 64% 95 29.93 0.0
13 08:55 S 7 10.00 Partly Cloudy SCT095 86.5 74.3 67% 95 29.92 0.0
13 08:35 SE 7 10.00 Fair CLR 85.1 74.3 70% 93 29.92 0.0
13 08:15 SE 8 10.00 Fair CLR 83.7 74.5 74% 91 29.91 0.0
13 07:55 SE 5 10.00 Fair CLR 82.6 74.7 77% 89 29.9 0.0
13 07:35 SE 3 10.00 Fair CLR 81.7 74.7 79% 88 29.9 0.0
13 07:15 SE 5 10.00 Fair CLR 80.8 74.3 81% 86 29.89 0.0
13 06:55 SE 3 10.00 Partly Cloudy SCT095 80.4 74.3 86.2 80.4 82% 85 29.88 0.0
13 06:35 SE 3 10.00 Fair CLR 80.6 74.3 81% 86 29.88 0.0
13 06:15 SE 5 10.00 Fair CLR 80.8 74.1 80% 86 29.87 0.0
13 05:55 SE 6 10.00 Fair CLR 81.1 73.9 79% 87 29.87 0.0
13 05:35 SE 5 10.00 Fair CLR 81.5 73.8 77% 87 29.87 0.0
13 05:15 SE 3 10.00 Fair CLR 81.5 73.6 77% 87 29.87 0.0
13 04:55 SE 6 10.00 Fair CLR 81.9 73 75% 87 29.86 0.0
13 04:35 SE 5 10.00 Fair CLR 82 72 72% 87 29.87 0.0
13 04:15 SE 6 10.00 Fair CLR 82.4 71.1 69% 87 29.87 0.0
13 03:55 SE 5 10.00 Fair CLR 82.9 70.7 67% 87 29.87 0.0
13 03:35 SE 7 10.00 Fair CLR 83.3 70.7 66% 88 29.87 0.0
13 03:15 SE 5 10.00 Fair CLR 83.5 70.7 65% 88 29.87 0.0
13 02:55 SE 5 10.00 Fair CLR 83.5 70.9 66% 88 29.87 0.0
13 02:35 SE 6 10.00 Fair CLR 84 70.7 64% 89 29.87 0.0
13 02:15 SE 5 10.00 Fair CLR 84.6 70.5 63% 89 29.88 0.0
13 01:55 SE 6 10.00 Fair CLR 85.1 70.2 61% 90 29.88 0.0
13 01:35 SE 7 10.00 Fair CLR 85.3 69.8 60% 90 29.89 0.0
13 01:15 SE 6 10.00 Fair CLR 86 69.8 59% 91 29.89 0.0
13 00:55 SE 5 10.00 Fair CLR 86.4 70 102 86.4 58% 91 29.89 0.0
13 00:35 SE 6 10.00 Fair CLR 86.5 70.3 59% 92 29.89 0.0
13 00:15 SE 9 10.00 Fair CLR 86.9 70.7 59% 92 29.89 0.0
12 23:55 SE 8 10.00 Fair CLR 87.4 70.7 58% 93 29.89 0.0
12 23:35 SE 9 G 17 10.00 Fair CLR 88 70.7 57% 94 29.88 0.0
12 23:15 E 10 G 20 10.00 Fair CLR 88.3 70.7 56% 94 29.88 0.0
12 22:55 E 16 G 23 10.00 Fair CLR 88.9 70.9 55% 95 29.88 0.0
Date Time (cdt) Wind (mph) Vis. (mi.) Weather Sky Cond. Air Dwpt Max. Min. Relative Humidity Wind Chill (°F) Heat Index (°F) altimeter (in) sea level (mb) 1 hr 3 hr 6 hr
6 hour
Temperature (ºF) Pressure Precipitation (in)